Weather in Veselynivka

Ukraine / Kyiv Region     50°14′56″N   31°16′10″E
temp.,
°C
wind,
m/s
gust,
m/s
humid.,
%
clouds,
%
prec.,
mm/h
press.,
hPa
HPBL,
m
27 september, mon
mon2700:00+10nnw36635 0.0 1021124
03:00+10nnw37671 0.0 1021247
06:00+7nnw37910 0.0 1022203
09:00+9n46790 0.0 1023408
12:00+12nne45596 0.0 1023967
15:00+14nne455624 0.0 10231161
18:00+13nne4757100 0.0 1023533
21:00+9n38755 0.0 1023191
28 september, tue
tue2800:00+8nne34825 0.0 102462
03:00+7nne34935 0.0 102484
06:00+6nne34955 0.0 102473
09:00+9nne35805 0.0 1025312
12:00+13ne456054 0.0 10261219
15:00+15ne444990 0.3 10251685
18:00+12ne586385 0.1 1027506
21:00+10ene3778100 0.1 1028362
29 september, wed
wed2900:00+10ene4881100 0.1 1030450
03:00+9ene4779100 0.1 1030425
06:00+7ene478514 0.0 1031239
09:00+8e58799 0.0 1032490
12:00+12e565951 0.0 10321231
15:00+12e4551100 0.0 10321475
18:00+11e4551100 0.0 1032547
21:00+10e235493 0.0 103385
30 september, thu
thu3000:00+8ne356611 0.0 1033122
03:00+6e34706 0.0 103360
06:00+5e34685 0.0 103466
09:00+8ese46555 0.0 1034256
12:00+13se45395 0.0 10341022
15:00+15se34335 0.0 10331371
18:00+12ese33431 0.0 103236
21:00+8ese34530 0.0 103363
1 october, fri
fri100:00+7ese35580 0.0 103470
03:00+6se34610 0.0 103451
06:00+5se33623 0.0 103541
09:00+8se35525 0.0 1035196
12:00+14sse45401 0.0 10351019
15:00+16se44345 0.0 10341445
18:00+13se34455 0.0 103365
21:00+9se3549100 0.0 103382